Location: Melizzano
(41.1500°N, 14.5000°E)
Time: 20:03:26
(UTC+00:00)

Cosmos 1805 Rocket - Pass Details

Date: 11 May 2021
Orbit: 607 x 629 km, 82.5° (Epoch: 21 June)

Event Time Altitude Azimuth Distance (km) Brightness Sun altitude
Rises 18:50:58 0° 356° (N) 2,876 7.6 -7.7°
Reaches altitude 10° 18:53:13 10° 360° (N) 1,969 6.6 -8.0°
Maximum altitude 18:57:31 59° 80° (E) 709 3.6 -8.7°
Drops below altitude 10° 19:01:49 10° 160° (SSE) 1,965 5.7 -9.4°
Enters shadow 19:02:35 - 162° (SSE) 2,273 6.0 -9.5°
